date,temp_today_philly,temp_hist_philly,day_duration_bangkok
1/1/2015,35.59999847,33.70000076,13.86666679
1/2/2015,36.5,33.54999924,13.86666679
1/3/2015,36.5,33.45000076,13.86666679
1/4/2015,50,33.29999924,13.88333321
1/5/2015,37.40000153,33.20000076,13.88333321
1/6/2015,20.29999924,33.15000153,13.88333321
1/7/2015,18.5,33.04999924,13.88333321
1/8/2015,14.89999962,32.95000076,13.88333321
1/9/2015,28.39999962,32.84999847,13.89999962
1/10/2015,20.29999924,32.84999847,13.88333321
1/11/2015,27.5,32.75,13.89999962
1/12/2015,35.59999847,32.70000076,13.89999962
1/13/2015,29.29999924,32.70000076,13.88333321
1/14/2015,25.70000076,32.70000076,13.89999962
1/15/2015,32,32.65000153,13.89999962
1/16/2015,33.79999924,32.65000153,13.91666698
1/17/2015,25.70000076,32.65000153,13.89999962
1/18/2015,33.79999924,32.65000153,13.91666698
1/19/2015,37.40000153,32.65000153,13.91666698
1/20/2015,37.40000153,32.65000153,13.9333334
1/21/2015,30.20000076,32.70000076,13.9333334
1/22/2015,35.59999847,32.70000076,13.94999981
1/23/2015,33.79999924,32.75,13.9333334
1/24/2015,36.5,32.84999847,13.9333334
1/25/2015,40.09999847,32.84999847,13.94999981
1/26/2015,30.20000076,32.95000076,13.94999981
1/27/2015,27.5,33,13.96666622
1/28/2015,27.5,33.09999847,13.96666622
1/29/2015,27.5,33.15000153,13.96666622
1/30/2015,31.10000038,33.25,13.98333359
1/31/2015,21.20000076,33.40000153,13.98333359
2/1/2015,30.20000076,33.5,13.98333359
2/2/2015,32,33.59999847,14
2/3/2015,24.79999924,33.75,14
2/4/2015,34.70000076,33.84999847,14
2/5/2015,29.29999924,34,14.01666641
2/6/2015,23,34.15000153,14.03333378
2/7/2015,32.90000153,34.25,14.03333378
2/8/2015,42.79999924,34.40000153,14.03333378
2/9/2015,32.90000153,34.54999924,14.05000019
2/10/2015,35.59999847,34.75,14.05000019
2/11/2015,32.90000153,34.90000153,14.0666666
2/12/2015,30.20000076,35.09999847,14.0666666
2/13/2015,17.60000038,35.25,14.08333302
2/14/2015,24.79999924,35.5,14.08333302
2/15/2015,14.89999962,35.65000153,14.10000038
2/16/2015,10.39999962,35.84999847,14.10000038
2/17/2015,20.29999924,36.04999924,14.10000038
2/18/2015,21.20000076,36.25,14.13333321
2/19/2015,15.80000019,36.5,14.13333321
2/20/2015,9.5,36.75,14.13333321
2/21/2015,21.20000076,36.95000076,14.14999962
2/22/2015,40.09999847,37.20000076,14.14999962
2/23/2015,24.79999924,37.45000076,14.16666698
2/24/2015,15.80000019,37.70000076,14.1833334
2/25/2015,26.60000038,37.95000076,14.1833334
2/26/2015,29.29999924,38.20000076,14.19999981
2/27/2015,25.70000076,38.45000076,14.19999981
2/28/2015,23.89999962,38.70000076,14.21666622
3/1/2015,26.60000038,39,14.21666622
3/2/2015,33.79999924,39.25,14.25
3/3/2015,29.29999924,39.5,14.25
3/4/2015,38.29999924,39.79999924,14.26666641
3/5/2015,29.29999924,40.04999924,14.26666641
3/6/2015,18.5,40.40000153,14.28333378
3/7/2015,25.70000076,40.65000153,14.30000019
3/8/2015,38.29999924,40.95000076,14.30000019
3/9/2015,44.59999847,41.25,14.3166666
3/10/2015,45.5,41.54999924,14.33333302
3/11/2015,52.70000076,41.90000153,14.35000038
3/12/2015,44.59999847,42.15000153,14.36666679
3/13/2015,39.20000076,42.45000076,14.36666679
3/14/2015,44.59999847,42.79999924,14.38333321
3/15/2015,43.70000076,43.15000153,14.39999962
3/16/2015,44.59999847,43.45000076,14.39999962
3/17/2015,52.70000076,43.79999924,14.41666698
3/18/2015,38.29999924,44.04999924,14.4333334
3/19/2015,37.40000153,44.40000153,14.4333334
3/20/2015,34.70000076,44.75,14.46666622
3/21/2015,41.90000153,45.09999847,14.48333359
3/22/2015,41,45.45000076,14.48333359
3/23/2015,34.70000076,45.79999924,14.5
3/24/2015,34.70000076,46.09999847,14.51666641
3/25/2015,37.40000153,46.45000076,14.53333378
3/26/2015,52.70000076,46.79999924,14.53333378
3/27/2015,43.70000076,47.09999847,14.55000019
3/28/2015,33.79999924,47.45000076,14.58333302
3/29/2015,36.5,47.84999847,14.58333302
3/30/2015,45.5,48.20000076,14.60000038
3/31/2015,48.20000076,48.54999924,14.61666679
4/1/2015,44.59999847,48.90000153,14.63333321
4/2/2015,51.79999924,49.25,14.63333321
4/3/2015,59.90000153,49.59999847,14.64999962
4/4/2015,52.70000076,50,14.6833334
4/5/2015,53.59999847,50.34999847,14.69999981
4/6/2015,57.20000076,50.65000153,14.69999981
4/7/2015,57.20000076,51.04999924,14.71666622
4/8/2015,41.90000153,51.40000153,14.73333359
4/9/2015,41,51.75,14.75
4/10/2015,49.09999847,52.09999847,14.76666641
4/11/2015,54.5,52.45000076,14.78333378
4/12/2015,51.79999924,52.79999924,14.80000019
4/13/2015,59.90000153,53.20000076,14.8166666
4/14/2015,57.20000076,53.5,14.8166666
4/15/2015,59,53.90000153,14.85000038
4/16/2015,60.79999924,54.25,14.86666679
4/17/2015,64.40000153,54.54999924,14.86666679
4/18/2015,67.09999847,54.95000076,14.88333321
4/19/2015,57.20000076,55.25,14.91666698
4/20/2015,62.59999847,55.59999847,14.9333334
4/21/2015,59,56,14.9333334
4/22/2015,59.90000153,56.29999924,14.94999981
4/23/2015,47.29999924,56.59999847,14.98333359
4/24/2015,48.20000076,56.95000076,14.98333359
4/25/2015,47.29999924,57.29999924,15
4/26/2015,54.5,57.65000153,15.01666641
4/27/2015,54.5,57.95000076,15.03333378
4/28/2015,61.70000076,58.25,15.05000019
4/29/2015,64.40000153,58.59999847,15.0666666
4/30/2015,60.79999924,58.95000076,15.08333302
5/1/2015,56.29999924,59.25,15.10000038
5/2/2015,59.90000153,59.54999924,15.11666679
5/3/2015,64.40000153,59.84999847,15.13333321
5/4/2015,68.90000153,60.20000076,15.13333321
5/5/2015,73.40000153,60.5,15.16666698
5/6/2015,67.09999847,60.79999924,15.16666698
5/7/2015,68.90000153,61.09999847,15.1833334
5/8/2015,68.90000153,61.40000153,15.19999981
5/9/2015,70.69999695,61.70000076,15.21666622
5/10/2015,75.19999695,62.04999924,15.23333359
5/11/2015,77,62.34999847,15.25
5/12/2015,77,62.65000153,15.25
5/13/2015,62.59999847,62.95000076,15.28333378
5/14/2015,60.79999924,63.25,15.28333378
5/15/2015,64.40000153,63.54999924,15.3166666
5/16/2015,72.5,63.90000153,15.3166666
5/17/2015,76.09999847,64.19999695,15.3166666
5/18/2015,74.30000305,64.5,15.35000038
5/19/2015,71.59999847,64.80000305,15.35000038
5/20/2015,66.19999695,65.15000153,15.36666679
5/21/2015,54.5,65.44999695,15.38333321
5/22/2015,65.30000305,65.75,15.39999962
5/23/2015,61.70000076,66.05000305,15.39999962
5/24/2015,67.09999847,66.40000153,15.41666698
5/25/2015,75.19999695,66.69999695,15.4333334
5/26/2015,77,67,15.4333334
5/27/2015,80.59999847,67.34999847,15.44999981
5/28/2015,79.69999695,67.65000153,15.44999981
5/29/2015,77,67.94999695,15.48333359
5/30/2015,77.90000153,68.30000305,15.48333359
5/31/2015,80.59999847,68.59999847,15.48333359
6/1/2015,66.19999695,68.90000153,15.5
6/2/2015,55.40000153,69.25,15.5
6/3/2015,62.59999847,69.55000305,15.51666641
6/4/2015,63.5,69.84999847,15.51666641
6/5/2015,65.30000305,70.19999695,15.51666641
6/6/2015,72.5,70.5,15.53333378
6/7/2015,67.09999847,70.84999847,15.53333378
6/8/2015,75.19999695,71.15000153,15.53333378
6/9/2015,77.90000153,71.44999695,15.55000019
6/10/2015,75.19999695,71.75,15.55000019
6/11/2015,80.59999847,72.09999847,15.5666666
6/12/2015,85.09999847,72.40000153,15.5666666
6/13/2015,82.40000153,72.69999695,15.5666666
6/14/2015,80.59999847,73,15.58333302
6/15/2015,81.5,73.30000305,15.58333302
6/16/2015,82.40000153,73.55000305,15.58333302
6/17/2015,77.90000153,73.84999847,15.58333302
6/18/2015,68.90000153,74.15000153,15.60000038
6/19/2015,78.80000305,74.40000153,15.58333302
6/20/2015,78.80000305,74.69999695,15.58333302
6/21/2015,82.40000153,74.94999695,15.58333302
6/22/2015,82.40000153,75.19999695,15.60000038
6/23/2015,82.40000153,75.44999695,15.60000038
6/24/2015,77,75.69999695,15.58333302
6/25/2015,76.09999847,75.90000153,15.58333302
6/26/2015,76.09999847,76.09999847,15.58333302
6/27/2015,67.09999847,76.34999847,15.58333302
6/28/2015,72.5,76.55000305,15.58333302
6/29/2015,71.59999847,76.75,15.58333302
6/30/2015,76.09999847,76.90000153,15.58333302
7/1/2015,77.90000153,77.09999847,15.5666666
7/2/2015,71.59999847,77.25,15.5666666
7/3/2015,74.30000305,77.40000153,15.5666666
7/4/2015,73.40000153,77.55000305,15.55000019
7/5/2015,75.19999695,77.65000153,15.55000019
7/6/2015,79.69999695,77.80000305,15.55000019
7/7/2015,83.30000305,77.90000153,15.53333378
7/8/2015,83.30000305,78,15.53333378
7/9/2015,78.80000305,78.05000305,15.53333378
7/10/2015,78.80000305,78.15000153,15.51666641
7/11/2015,81.5,78.25,15.51666641
7/12/2015,79.69999695,78.30000305,15.48333359
7/13/2015,79.69999695,78.34999847,15.48333359
7/14/2015,79.69999695,78.40000153,15.48333359
7/15/2015,76.09999847,78.44999695,15.46666622
7/16/2015,73.40000153,78.44999695,15.46666622
7/17/2015,74.30000305,78.5,15.44999981
7/18/2015,80.59999847,78.5,15.4333334
7/19/2015,86,78.5,15.4333334
7/20/2015,87.80000305,78.5,15.41666698
7/21/2015,82.40000153,78.44999695,15.39999962
7/22/2015,77,78.44999695,15.38333321
7/23/2015,75.19999695,78.44999695,15.38333321
7/24/2015,76.09999847,78.40000153,15.36666679
7/25/2015,78.80000305,78.40000153,15.35000038
7/26/2015,80.59999847,78.34999847,15.35000038
7/27/2015,79.69999695,78.30000305,15.33333302
7/28/2015,84.19999695,78.25,15.3166666
7/29/2015,84.19999695,78.25,15.3166666
7/30/2015,84.19999695,78.15000153,15.28333378
7/31/2015,79.69999695,78.15000153,15.28333378
8/1/2015,82.40000153,78.09999847,15.26666641
8/2/2015,79.69999695,78,15.25
8/3/2015,83.30000305,77.94999695,15.23333359
8/4/2015,82.40000153,77.90000153,15.23333359
8/5/2015,81.5,77.80000305,15.19999981
8/6/2015,76.09999847,77.75,15.19999981
8/7/2015,78.80000305,77.69999695,15.1833334
8/8/2015,78.80000305,77.59999847,15.14999962
8/9/2015,78.80000305,77.5,15.14999962
8/10/2015,74.30000305,77.40000153,15.13333321
8/11/2015,77.90000153,77.34999847,15.11666679
8/12/2015,77,77.25,15.10000038
8/13/2015,76.09999847,77.15000153,15.08333302
8/14/2015,76.09999847,77.05000305,15.0666666
8/15/2015,80.59999847,76.94999695,15.05000019
8/16/2015,82.40000153,76.80000305,15.03333378
8/17/2015,83.30000305,76.69999695,15.03333378
8/18/2015,82.40000153,76.59999847,15
8/19/2015,83.30000305,76.44999695,14.98333359
8/20/2015,82.40000153,76.30000305,14.98333359
8/21/2015,80.59999847,76.19999695,14.96666622
8/22/2015,77,76,14.9333334
8/23/2015,76.09999847,75.90000153,14.9333334
8/24/2015,77.90000153,75.69999695,14.91666698
8/25/2015,80.59999847,75.5,14.89999962
8/26/2015,75.19999695,75.34999847,14.88333321
8/27/2015,72.5,75.15000153,14.86666679
8/28/2015,73.40000153,74.94999695,14.85000038
8/29/2015,76.09999847,74.75,14.83333302
8/30/2015,80.59999847,74.5,14.8166666
8/31/2015,82.40000153,74.25,14.8166666
9/1/2015,84.19999695,74.05000305,14.80000019
9/2/2015,83.30000305,73.75,14.76666641
9/3/2015,85.09999847,73.55000305,14.75
9/4/2015,83.30000305,73.25,14.73333359
9/5/2015,77,72.94999695,14.73333359
9/6/2015,75.19999695,72.65000153,14.71666622
9/7/2015,79.69999695,72.34999847,14.69999981
9/8/2015,82.40000153,72.05000305,14.6833334
9/9/2015,84.19999695,71.69999695,14.66666698
9/10/2015,75.19999695,71.40000153,14.66666698
9/11/2015,75.19999695,71,14.63333321
9/12/2015,73.40000153,70.69999695,14.61666679
9/13/2015,66.19999695,70.30000305,14.60000038
9/14/2015,66.19999695,69.94999695,14.60000038
9/15/2015,69.80000305,69.55000305,14.58333302
9/16/2015,75.19999695,69.19999695,14.5666666
9/17/2015,75.19999695,68.84999847,14.55000019
9/18/2015,73.40000153,68.44999695,14.53333378
9/19/2015,75.19999695,68,14.53333378
9/20/2015,72.5,67.59999847,14.51666641
9/21/2015,67.09999847,67.19999695,14.5
9/22/2015,68.90000153,66.80000305,14.48333359
9/23/2015,69.80000305,66.40000153,14.48333359
9/24/2015,69.80000305,65.94999695,14.46666622
9/25/2015,71.59999847,65.55000305,14.44999981
9/26/2015,66.19999695,65.15000153,14.4333334
9/27/2015,66.19999695,64.65000153,14.41666698
9/28/2015,73.40000153,64.25,14.39999962
9/29/2015,76.09999847,63.84999847,14.38333321
9/30/2015,73.40000153,63.40000153,14.38333321
10/1/2015,60.79999924,63,14.36666679
10/2/2015,53.59999847,62.59999847,14.35000038
10/3/2015,52.70000076,62.20000076,14.33333302
10/4/2015,59,61.75,14.33333302
10/5/2015,60.79999924,61.34999847,14.3166666
10/6/2015,63.5,61,14.30000019
10/7/2015,67.09999847,60.59999847,14.30000019
10/8/2015,66.19999695,60.20000076,14.28333378
10/9/2015,70.69999695,59.79999924,14.28333378
10/10/2015,59,59.45000076,14.26666641
10/11/2015,58.09999847,59.09999847,14.25
10/12/2015,63.5,58.70000076,14.25
10/13/2015,67.09999847,58.34999847,14.23333359
10/14/2015,62.59999847,58,14.23333359
10/15/2015,59,57.65000153,14.19999981
10/16/2015,58.09999847,57.34999847,14.19999981
10/17/2015,50.90000153,56.95000076,14.1833334
10/18/2015,45.5,56.65000153,14.1833334
10/19/2015,45.5,56.34999847,14.16666698
10/20/2015,59,55.95000076,14.16666698
10/21/2015,62.59999847,55.65000153,14.14999962
10/22/2015,63.5,55.34999847,14.14999962
10/23/2015,56.29999924,55.04999924,14.13333321
10/24/2015,53.59999847,54.75,14.11666679
10/25/2015,61.70000076,54.40000153,14.11666679
10/26/2015,52.70000076,54.09999847,14.10000038
10/27/2015,52.70000076,53.79999924,14.10000038
10/28/2015,62.59999847,53.5,14.08333302
10/29/2015,64.40000153,53.25,14.08333302
10/30/2015,52.70000076,52.90000153,14.0666666
10/31/2015,48.20000076,52.59999847,14.0666666
11/1/2015,58.09999847,52.29999924,14.05000019
11/2/2015,57.20000076,52.04999924,14.05000019
11/3/2015,60.79999924,51.70000076,14.05000019
11/4/2015,64.40000153,51.40000153,14.03333378
11/5/2015,62.59999847,51.09999847,14.01666641
11/6/2015,71.59999847,50.79999924,14.01666641
11/7/2015,61.70000076,50.5,14.01666641
11/8/2015,51.79999924,50.15000153,14.01666641
11/9/2015,50,49.84999847,14
11/10/2015,58.09999847,49.54999924,14
11/11/2015,59,49.20000076,14
11/12/2015,54.5,48.90000153,13.96666622
11/13/2015,53.59999847,48.54999924,13.96666622
11/14/2015,45.5,48.20000076,13.96666622
11/15/2015,49.09999847,47.84999847,13.94999981
11/16/2015,57.20000076,47.54999924,13.94999981
11/17/2015,50,47.25,13.94999981
11/18/2015,51.79999924,46.90000153,13.9333334
11/19/2015,59.90000153,46.54999924,13.94999981
11/20/2015,53.59999847,46.15000153,13.94999981
11/21/2015,47.29999924,45.75,13.9333334
11/22/2015,46.40000153,45.40000153,13.9333334
11/23/2015,38.29999924,45.04999924,13.91666698
11/24/2015,41.90000153,44.70000076,13.91666698
11/25/2015,44.59999847,44.34999847,13.91666698
11/26/2015,50.90000153,44,13.89999962
11/27/2015,52.70000076,43.59999847,13.91666698
11/28/2015,55.40000153,43.25,13.89999962
11/29/2015,45.5,42.90000153,13.89999962
11/30/2015,41,42.54999924,13.88333321
12/1/2015,50,42.15000153,13.89999962
12/2/2015,56.29999924,41.75,13.89999962
12/3/2015,47.29999924,41.45000076,13.88333321
12/4/2015,45.5,41.09999847,13.89999962
12/5/2015,43.70000076,40.75,13.88333321
12/6/2015,42.79999924,40.34999847,13.88333321
12/7/2015,46.40000153,40,13.88333321
12/8/2015,42.79999924,39.65000153,13.88333321
12/9/2015,46.40000153,39.34999847,13.86666679
12/10/2015,54.5,39,13.88333321
12/11/2015,51.79999924,38.70000076,13.86666679
12/12/2015,59,38.34999847,13.88333321
12/13/2015,61.70000076,38.04999924,13.86666679
12/14/2015,61.70000076,37.75,13.86666679
12/15/2015,59,37.40000153,13.86666679
12/16/2015,50.90000153,37.15000153,13.86666679
12/17/2015,50.90000153,36.84999847,13.86666679
12/18/2015,47.29999924,36.54999924,13.86666679
12/19/2015,38.29999924,36.34999847,13.86666679
12/20/2015,36.5,36.04999924,13.86666679
12/21/2015,46.40000153,35.79999924,13.86666679
12/22/2015,57.20000076,35.54999924,13.86666679
12/23/2015,63.5,35.34999847,13.86666679
12/24/2015,67.09999847,35.09999847,13.86666679
12/25/2015,62.59999847,34.90000153,13.86666679
12/26/2015,58.09999847,34.70000076,13.86666679
12/27/2015,55.40000153,34.5,13.86666679
12/28/2015,42.79999924,34.29999924,13.86666679
12/29/2015,46.40000153,34.20000076,13.86666679
12/30/2015,49.09999847,34,13.86666679
12/31/2015,47.29999924,33.84999847,13.86666679
1/1/2014,32,33.70000076,13.86666679
1/2/2014,28.39999962,33.54999924,13.86666679
1/3/2014,15.80000019,33.45000076,13.86666679
1/4/2014,18.5,33.29999924,13.88333321
1/5/2014,35.59999847,33.20000076,13.88333321
1/6/2014,36.5,33.15000153,13.88333321
1/7/2014,7.699999809,33.04999924,13.88333321
1/8/2014,18.5,32.95000076,13.88333321
1/9/2014,30.20000076,32.84999847,13.89999962
1/10/2014,32,32.84999847,13.88333321
1/11/2014,48.20000076,32.75,13.89999962
1/12/2014,42.79999924,32.70000076,13.89999962
1/13/2014,42.79999924,32.70000076,13.88333321
1/14/2014,44.59999847,32.70000076,13.89999962
1/15/2014,41.90000153,32.65000153,13.89999962
1/16/2014,32.90000153,32.65000153,13.91666698
1/17/2014,34.70000076,32.65000153,13.89999962
1/18/2014,31.10000038,32.65000153,13.91666698
1/19/2014,32,32.65000153,13.91666698
1/20/2014,42.79999924,32.65000153,13.9333334
1/21/2014,25.70000076,32.70000076,13.9333334
1/22/2014,9.5,32.70000076,13.94999981
1/23/2014,14.89999962,32.75,13.9333334
1/24/2014,14,32.84999847,13.9333334
1/25/2014,23,32.84999847,13.94999981
1/26/2014,23,32.95000076,13.94999981
1/27/2014,33.79999924,33,13.96666622
1/28/2014,16.70000076,33.09999847,13.96666622
1/29/2014,16.70000076,33.15000153,13.96666622
1/30/2014,19.39999962,33.25,13.98333359
1/31/2014,32.90000153,33.40000153,13.98333359
2/1/2014,39.20000076,33.5,13.98333359
2/2/2014,41,33.59999847,14
2/3/2014,37.40000153,33.75,14
2/4/2014,30.20000076,33.84999847,14
2/5/2014,33.79999924,34,14.01666641
2/6/2014,28.39999962,34.15000153,14.03333378
2/7/2014,28.39999962,34.25,14.03333378
2/8/2014,27.5,34.40000153,14.03333378
2/9/2014,25.70000076,34.54999924,14.05000019
2/10/2014,23,34.75,14.05000019
2/11/2014,21.20000076,34.90000153,14.0666666
2/12/2014,19.39999962,35.09999847,14.0666666
2/13/2014,30.20000076,35.25,14.08333302
2/14/2014,37.40000153,35.5,14.08333302
2/15/2014,32.90000153,35.65000153,14.10000038
2/16/2014,25.70000076,35.84999847,14.10000038
2/17/2014,26.60000038,36.04999924,14.10000038
2/18/2014,35.59999847,36.25,14.13333321
2/19/2014,36.5,36.5,14.13333321
2/20/2014,40.09999847,36.75,14.13333321
2/21/2014,49.09999847,36.95000076,14.14999962
2/22/2014,44.59999847,37.20000076,14.14999962
2/23/2014,47.29999924,37.45000076,14.16666698
2/24/2014,34.70000076,37.70000076,14.1833334
2/25/2014,31.10000038,37.95000076,14.1833334
2/26/2014,26.60000038,38.20000076,14.19999981
2/27/2014,25.70000076,38.45000076,14.19999981
2/28/2014,18.5,38.70000076,14.21666622
3/1/2014,28.39999962,39,14.21666622
3/2/2014,36.5,39.25,14.25
3/3/2014,24.79999924,39.5,14.25
3/4/2014,20.29999924,39.79999924,14.26666641
3/5/2014,31.10000038,40.04999924,14.26666641
3/6/2014,27.5,40.40000153,14.28333378
3/7/2014,32.90000153,40.65000153,14.30000019
3/8/2014,46.40000153,40.95000076,14.30000019
3/9/2014,42.79999924,41.25,14.3166666
3/10/2014,45.5,41.54999924,14.33333302
3/11/2014,50.90000153,41.90000153,14.35000038
3/12/2014,49.09999847,42.15000153,14.36666679
3/13/2014,27.5,42.45000076,14.36666679
3/14/2014,38.29999924,42.79999924,14.38333321
3/15/2014,53.59999847,43.15000153,14.39999962
3/16/2014,37.40000153,43.45000076,14.39999962
3/17/2014,27.5,43.79999924,14.41666698
3/18/2014,38.29999924,44.04999924,14.4333334
3/19/2014,41.90000153,44.40000153,14.4333334
3/20/2014,46.40000153,44.75,14.46666622
3/21/2014,44.59999847,45.09999847,14.48333359
3/22/2014,51.79999924,45.45000076,14.48333359
3/23/2014,38.29999924,45.79999924,14.5
3/24/2014,29.29999924,46.09999847,14.51666641
3/25/2014,32.90000153,46.45000076,14.53333378
3/26/2014,32.90000153,46.79999924,14.53333378
3/27/2014,33.79999924,47.09999847,14.55000019
3/28/2014,50,47.45000076,14.58333302
3/29/2014,50,47.84999847,14.58333302
3/30/2014,42.79999924,48.20000076,14.60000038
3/31/2014,49.09999847,48.54999924,14.61666679
4/1/2014,49.09999847,48.90000153,14.63333321
4/2/2014,50.90000153,49.25,14.63333321
4/3/2014,55.40000153,49.59999847,14.64999962
4/4/2014,48.20000076,50,14.6833334
4/5/2014,49.09999847,50.34999847,14.69999981
4/6/2014,47.29999924,50.65000153,14.69999981
4/7/2014,45.5,51.04999924,14.71666622
4/8/2014,57.20000076,51.40000153,14.73333359
4/9/2014,54.5,51.75,14.75
4/10/2014,53.59999847,52.09999847,14.76666641
4/11/2014,66.19999695,52.45000076,14.78333378
4/12/2014,63.5,52.79999924,14.80000019
4/13/2014,67.09999847,53.20000076,14.8166666
4/14/2014,70.69999695,53.5,14.8166666
4/15/2014,53.59999847,53.90000153,14.85000038
4/16/2014,39.20000076,54.25,14.86666679
4/17/2014,45.5,54.54999924,14.86666679
4/18/2014,47.29999924,54.95000076,14.88333321
4/19/2014,55.40000153,55.25,14.91666698
4/20/2014,50.90000153,55.59999847,14.9333334
4/21/2014,54.5,56,14.9333334
4/22/2014,61.70000076,56.29999924,14.94999981
4/23/2014,53.59999847,56.59999847,14.98333359
4/24/2014,52.70000076,56.95000076,14.98333359
4/25/2014,54.5,57.29999924,15
4/26/2014,59.90000153,57.65000153,15.01666641
4/27/2014,54.5,57.95000076,15.03333378
4/28/2014,54.5,58.25,15.05000019
4/29/2014,47.29999924,58.59999847,15.0666666
4/30/2014,54.5,58.95000076,15.08333302
5/1/2014,70.69999695,59.25,15.10000038
5/2/2014,62.59999847,59.54999924,15.11666679
5/3/2014,60.79999924,59.84999847,15.13333321
5/4/2014,58.09999847,60.20000076,15.13333321
5/5/2014,59,60.5,15.16666698
5/6/2014,61.70000076,60.79999924,15.16666698
5/7/2014,58.09999847,61.09999847,15.1833334
5/8/2014,62.59999847,61.40000153,15.19999981
5/9/2014,67.09999847,61.70000076,15.21666622
5/10/2014,73.40000153,62.04999924,15.23333359
5/11/2014,69.80000305,62.34999847,15.25
5/12/2014,71.59999847,62.65000153,15.25
5/13/2014,64.40000153,62.95000076,15.28333378
5/14/2014,62.59999847,63.25,15.28333378
5/15/2014,71.59999847,63.54999924,15.3166666
5/16/2014,65.30000305,63.90000153,15.3166666
5/17/2014,61.70000076,64.19999695,15.3166666
5/18/2014,59,64.5,15.35000038
5/19/2014,60.79999924,64.80000305,15.35000038
5/20/2014,65.30000305,65.15000153,15.36666679
5/21/2014,65.30000305,65.44999695,15.38333321
5/22/2014,70.69999695,65.75,15.39999962
5/23/2014,67.09999847,66.05000305,15.39999962
5/24/2014,66.19999695,66.40000153,15.41666698
5/25/2014,68.90000153,66.69999695,15.4333334
5/26/2014,75.19999695,67,15.4333334
5/27/2014,77,67.34999847,15.44999981
5/28/2014,64.40000153,67.65000153,15.44999981
5/29/2014,57.20000076,67.94999695,15.48333359
5/30/2014,65.30000305,68.30000305,15.48333359
5/31/2014,67.09999847,68.59999847,15.48333359
6/1/2014,66.19999695,68.90000153,15.5
6/2/2014,68,69.25,15.5
6/3/2014,77,69.55000305,15.51666641
6/4/2014,77,69.84999847,15.51666641
6/5/2014,70.69999695,70.19999695,15.51666641
6/6/2014,68.90000153,70.5,15.53333378
6/7/2014,73.40000153,70.84999847,15.53333378
6/8/2014,74.30000305,71.15000153,15.53333378
6/9/2014,74.30000305,71.44999695,15.55000019
6/10/2014,77.90000153,71.75,15.55000019
6/11/2014,67.09999847,72.09999847,15.5666666
6/12/2014,68.90000153,72.40000153,15.5666666
6/13/2014,77.90000153,72.69999695,15.5666666
6/14/2014,68.90000153,73,15.58333302
6/15/2014,69.80000305,73.30000305,15.58333302
6/16/2014,75.19999695,73.55000305,15.58333302
6/17/2014,82.40000153,73.84999847,15.58333302
6/18/2014,86,74.15000153,15.60000038
6/19/2014,75.19999695,74.40000153,15.58333302
6/20/2014,72.5,74.69999695,15.58333302
6/21/2014,73.40000153,74.94999695,15.58333302
6/22/2014,73.40000153,75.19999695,15.60000038
6/23/2014,72.5,75.44999695,15.60000038
6/24/2014,75.19999695,75.69999695,15.58333302
6/25/2014,80.59999847,75.90000153,15.58333302
6/26/2014,79.69999695,76.09999847,15.58333302
6/27/2014,77,76.34999847,15.58333302
6/28/2014,77,76.55000305,15.58333302
6/29/2014,75.19999695,76.75,15.58333302
6/30/2014,77.90000153,76.90000153,15.58333302
7/1/2014,82.40000153,77.09999847,15.5666666
7/2/2014,86,77.25,15.5666666
7/3/2014,82.40000153,77.40000153,15.5666666
7/4/2014,73.40000153,77.55000305,15.55000019
7/5/2014,73.40000153,77.65000153,15.55000019
7/6/2014,75.19999695,77.80000305,15.55000019
7/7/2014,83.30000305,77.90000153,15.53333378